626  
ASUS42 KCAE 181610  
RWRCAE  
REGIONAL WEATHER ROUNDUP  
NATIONAL WEATHER SERVICE COLUMBIA SC  
1200 PM EDT WED JUL 18 2018  
 
NOTE: "FAIR" INDICATES FEW OR NO CLOUDS BELOW 12,000 FEET WITH NO  
SIGNIFICANT WEATHER AND/OR S TO VISIBILITY
.  
 
NOT ALL STATIONS ARE QUALITY CONTROLLED BY THE NATIONAL  
WEATHER SERVICE. USE DATA WITH CAUTION...ESPECIALLY  
DEWPOINT OBSERVATIONS.  
 
SCZ001>056-GAZ040-063>065-077-181700-   
..UPSTATE SOUTH CAROLINA
 
 
 
CITY SKY/WX TMP DP RH WIND PRES REMARKS
 
ANDERSON FAIR 84 71 65 NE9 30.01S  
LIBERTY FAIR 87 72 61 E3 30.00F  
SPARTANBURG FAIR 84 66 54 NE7 30.01S  
CLEMSON FAIR 84 70 62 E5 30.02S  
GREENVILLE FAIR 85 71 63 NE8 30.02F  
GREENWOOD FAIR 83 71 67 NE8 30.01S  
GREER FAIR 85 70 60 NE8 30.02S  
ROCK HILL FAIR 86 69 56 NE9 30.00F  
CHESTER FAIR 86 63 45 N14 30.00S  
LAURENS FAIR 81 70 69 NE5 30.00F  
 
   
..CENTRAL SOUTH CAROLINA
 
 
 
CITY SKY/WX TMP DP RH WIND PRES REMARKS
 
COLUMBIA APT PTSUNNY 91 72 53 NE3 29.95S HX 98  
COLUMBIA OWENS FAIR 89 69 51 E5 29.96S  
MCENTIRE ANGB FAIR 87 72 61 CALM 29.96S  
SUMTER SHAW PTSUNNY 85 72 64 NE3 29.93F  
NEWBERRY N/A 86 72 62 N8 30.02S  
AIKEN FAIR 88 72 58 E5 30.00F  
BARNWELL FAIR 88 75 66 CALM 29.96F HX 97  
MANNING FAIR 79 72 78 CALM 29.95F  
CAMDEN PTSUNNY 88 70 55 N8G14 29.96F  
LANCASTER FAIR 84 68 58 N7 29.99S  
WINNSBORO FAIR 88 68 51 N8 29.98S  
 
   
..EASTERN AND COASTAL SOUTH CAROLINA
 
 
 
CITY SKY/WX TMP DP RH WIND PRES REMARKS
 
MYRTLE BEACH FAIR 87 76 69 VRB5 29.95F HX 97  
N MYRTLE BCH CLOUDY 83 75 77 S7 29.94F  
CONWAY FAIR 84 77 79 W3 29.94F  
MARION CLOUDY 82 73 74 NW5 29.95S HAZE  
HARTSVILLE PTSUNNY 88 72 58 NE9 29.96S  
FLORENCE FAIR 88 74 63 N8 29.95S HX 96  
DARLINGTON CLOUDY 88 75 65 E12 29.96S HX 97  
CHARLESTON APT PTSUNNY 88 77 69 N6 29.95F HX 100  
WALTERBORO FAIR 88 73 62 NW6 29.97S HX 96  
BEAUFORT FAIR 89 79 72 W8 29.96 HX 104  
 
   
..EASTERN GEORGIA
 
 
 
CITY SKY/WX TMP DP RH WIND PRES REMARKS
 
AUGUSTA BUSH F FAIR 89 76 65 CALM 29.95F HX 100  
AUGUSTA DANIEL FAIR 89 75 63 VRB3 29.97F HX 99  
THOMSON FAIR 88 72 59 CALM 30.02F  
CLAXTON FAIR 89 78 70 S5 29.97S HX 104  
SYLVANIA FAIR 88 78 72 NW5 29.98S HX 102  
STATESBORO FAIR 88 76 69 W6 29.97S HX 98  
SAVANNAH PTSUNNY 88 78 72 SW5 29.97F HX 101  
 
   
..SOUTHERN NORTH CAROLINA
 
 
 
CITY SKY/WX TMP DP RH WIND PRES REMARKS
 
CHARLOTTE FAIR 87 64 46 N12G18 30.00F  
MONROE FAIR 85 67 54 NE7 29.99S  
WADESBORO FAIR 86 70 58 N9 29.98S  
ROCKINGHAM FAIR 84 71 64 NE7 29.98R  
ASHEVILLE FAIR 82 63 52 N10 30.08F  
 

 
 
 
CLICK HERE TO GO TO PREVIOUS BULLETINS.

The Nexlab SC Page
The Nexlab GA Page Main Text Page